Details From CYKF - WATERLOO
To CYVV - WIARTON
Flight Number -
Tags decoded
Created
Modified
Stats Distance 83 nm / 154 km
Max Altitude 0 ft / 0 m
Waypoints 3
Social Downloads 4
Likes 0
Share VATSIM

Download

Looking for another format? Having issues loading an existing format? Contact us
Advertisement - Login to hide

Notes

Requested: CYKF CPN4 YVV CYVV Unmatched points: CPN4

Route

CYKF YVV CYVV

ID Type Via Altitude Latitude Longitude Leg Dist Tot Dist Heading (true) Name
O CYKF APT - 0 ft / 0 m 43.46008˚ -80.38261˚ - 0 nm - WATERLOO
YVV VOR - 0 ft / 0 m 44.74483˚ -81.10497˚ 83 nm 83 nm 338° / 338° WIARTON VOR-DME
O CYVV APT - 0 ft / 0 m 44.74313˚ -81.10819˚ 0 nm 83 nm 233° / 233° WIARTON

Altitude Profile

Advertisement - Login to hide

CYKF

Details ICAO CYKF (YKF)
Name WATERLOO
Region Canada
Timezone America/Toronto (UTC-4.0)
Stats Elevation 1,054 ft / 321 m (AMSL)
Location 43.460084° -80.382613°
Runways 2
Magnetic Variation 9.733° W

METAR

CYKF 251900Z AUTO 24013G18KT 9SM CLR 28/11 A2986 RMK SLP110 DENSITY ALT 2800FT

Decode

TAF

TAF CYKF 251338Z 2514/2602 26010KT P6SM FEW080 SCT230 BECMG 2515/2517 25012G22KT BECMG 2600/2602 25010KT RMK FCST BASED ON AUTO OBS. NXT FCST BY 252000Z

Decode

Departure Runways

ID Width Length Bearing (true) Bearing (mag) Surface Threshold Offset Overrun Length
08 150 ft / 46 m 6,988 ft / 2,130 m 64.02° 73.75° Asphalt 0 ft / 0 m 0 ft / 0 m
14 150 ft / 46 m 4,055 ft / 1,236 m 128.69° 138.42° Asphalt 0 ft / 0 m 0 ft / 0 m
26 150 ft / 46 m 6,988 ft / 2,130 m 244.03° 253.76° Asphalt 0 ft / 0 m 0 ft / 0 m
32 150 ft / 46 m 4,055 ft / 1,236 m 308.69° 318.42° Asphalt 0 ft / 0 m 0 ft / 0 m

CYVV

Details ICAO CYVV (YVV)
Name WIARTON
Region Canada
Timezone America/Toronto (UTC-4.0)
Stats Elevation 729 ft / 222 m (AMSL)
Location 44.743125° -81.108194°
Runways 2
Magnetic Variation 9.546° W

METAR

CYVV 251900Z 28006KT 240V310 15SM BKN030 BKN100 24/11 A2982 RMK SC5AC2 SLP099 DENSITY ALT 2000FT

Decode

TAF

TAF CYVV 251338Z 2514/2523 23012KT P6SM SCT070 BKN150 FM251900 23012G22KT P6SM BKN070 PROB30 2520/2523 VRB15G25KT 2SM TSRA BR BKN050CB RMK NXT FCST BY 252000Z

Decode

Destination Runways

ID Width Length Bearing (true) Bearing (mag) Surface Threshold Offset Overrun Length
05 150 ft / 46 m 5,026 ft / 1,532 m 43.44° 52.99° Asphalt 0 ft / 0 m 0 ft / 0 m
11 100 ft / 30 m 3,066 ft / 935 m 99.51° 109.06° Gravel 0 ft / 0 m 0 ft / 0 m
23 150 ft / 46 m 5,026 ft / 1,532 m 223.45° 233.00° Asphalt 0 ft / 0 m 0 ft / 0 m
29 100 ft / 30 m 3,066 ft / 935 m 279.52° 289.07° Gravel 0 ft / 0 m 0 ft / 0 m

Popular Alternatives